Regional Weather Roundup
Issued by NWS

Home | Current Version | Previous Version | Text Only | Print | Product List | Glossary On
Versions: 1 2 3 4 5 6 7 8 9 10 11 12 13 14 15 16 17 18 19 20 21 22 23 24 25 26 27 28 29 30 31 32 33 34 35 36 37 38 39 40 41 42 43 44 45 46 47 48 49 50
000
ASUS44 KOUN 310910
RWROK

WEATHER ROUNDUP FOR OKLAHOMA
NATIONAL WEATHER SERVICE NORMAN OK
400 AM CDT FRI OCT 31 2014

NOTE: "FAIR" INDICATES FEW OR NO CLOUDS BELOW 12,000 FEET WITH NO
      SIGNIFICANT WEATHER AND/OR OBSTRUCTIONS TO VISIBILITY.

OKZ001>007-009>012-014-015-017-311000-
NORTHWEST OKLAHOMA AND THE PANHANDLE

CITY           SKY/WX    TMP DP  RH WIND       PRES   REMARKS
GAGE           CLEAR     44  34  67 N9        30.38S
ENID/WOODRING    N/A     48  37  66 N17       30.32R
$$

OKZ016-021>023-033>039-044-045-311000-
SOUTHWEST OKLAHOMA

CITY           SKY/WX    TMP DP  RH WIND       PRES   REMARKS
LAWTON/REGL    CLEAR     56  35  45 N15       30.29R
LAWTON/FT SILL CLEAR     53  36  52 N15       30.28R
FREDERICK      CLEAR     54  34  46 N13       30.27S
CLINTON        CLEAR     50  35  56 N13       30.35R
HOBART         CLEAR     46  34  62 N8        30.33R
ALTUS AFB      CLEAR     55  34  46 N15       30.31S
$$

OKZ018>020-024>031-311000-
CENTRAL OKLAHOMA

CITY           SKY/WX    TMP DP  RH WIND       PRES   REMARKS
OKLAHOMA CITY  CLEAR     54  36  50 N13G22    30.28R
OKC/WILEY POST CLEAR     50  37  61 N12       30.29S
OKC/TINKER AFB CLEAR     50  38  61 N13       30.27R
STILLWATER     CLEAR     50  38  63 N14       30.29R
GUTHRIE        CLEAR     49  38  65 VRB6      30.30R
$$

OKZ008-013-054>072-311000-
NORTHEAST OKLAHOMA

CITY           SKY/WX    TMP DP  RH WIND       PRES   REMARKS
TULSA          CLEAR     51  41  68 N14       30.24R
TULSA/JONES    CLEAR     54  40  59 N13G20    30.25R
PONCA CITY     CLEAR     48  38  68 N18       30.31R
BARTLESVILLE   CLEAR     49  40  71 VRB7G21   30.28R
MUSKOGEE       CLEAR     52  40  63 N15       30.22R
$$

OKZ032-040>043-046>053-073>077-311000-
SOUTH CENTRAL/SOUTHEAST OKLAHOMA

CITY           SKY/WX    TMP DP  RH WIND       PRES   REMARKS
ARDMORE/DWNTWN CLEAR     55  36  47 N5        30.23S
MCALESTER      CLEAR     55  40  56 N8        30.21R
$$




USA.gov is the U.S. government's official web portal to all federal, state and local government web resources and services.